When you browse on this site, cookies collect data to enhance your experience and personalize the content and advertising you see.
Visit our Privacy Policy to learn more. By continuing to use the site, you agree to this use of cookies and data.
  • En España
  • Lista de países
  • Para 7 días
  • Temperatura del agua
  • Mapa Satelital
  • El tiempo en el mapa
  • Informadores
  • user-avatar
    Iniciar sesión

    Tiempo cada hora Baraki Barak

    Hoy, 16 Enero, Miércoles

    Tiempo Temperatura Precipitaciones Viento Presión Humedad
    00:00 +2°C° 0 mm 2 mps 594 mmHg 47%
    01:00 +3°C° 0 mm 1 mps 594 mmHg 47%
    02:00 +3°C° 0 mm 1 mps 594 mmHg 47%
    03:00 +2°C° 0 mm 1 mps 594 mmHg 47%
    04:00 +1°C° 0 mm 2 mps 593 mmHg 47%
    05:00 -1°C° 0 mm 2 mps 593 mmHg 48%
    06:00 -1°C° 0 mm 2 mps 593 mmHg 49%
    07:00 -1°C° 0 mm 2 mps 593 mmHg 50%
    08:00 -1°C° 0 mm 2 mps 593 mmHg 50%
    09:00 +1°C° 0 mm 2 mps 594 mmHg 56%
    10:00 +2°C° 0 mm 2 mps 594 mmHg 61%
    11:00 +4°C° 0 mm 2 mps 595 mmHg 67%
    12:00 +4°C° 0 mm 2 mps 595 mmHg 69%
    13:00 +4°C° 0 mm 2 mps 595 mmHg 71%
    14:00 +5°C° 0 mm 2 mps 595 mmHg 73%
    15:00 +4°C° 0 mm 2 mps 595 mmHg 69%
    16:00 +3°C° 0 mm 2 mps 594 mmHg 65%
    17:00 +2°C° 0 mm 2 mps 594 mmHg 60%
    18:00 +1°C° 0 mm 2 mps 594 mmHg 59%
    19:00 +1°C° 0 mm 2 mps 595 mmHg 58%
    20:00 -1°C° 0 mm 2 mps 595 mmHg 58%
    21:00 -2°C° 0 mm 2 mps 595 mmHg 57%
    22:00 -2°C° 0 mm 2 mps 595 mmHg 57%
    23:00 0°C° 0 mm 1 mps 596 mmHg 56%

    Mañana, 17 Enero, Jueves

    Tiempo Temperatura Precipitaciones Viento Presión Humedad
    00:00 -1°C° 0 mm 1 mps 596 mmHg 56%
    01:00 -1°C° 0 mm 1 mps 595 mmHg 55%
    02:00 -1°C° 0 mm 1 mps 595 mmHg 54%
    03:00 -4°C° 0 mm 2 mps 595 mmHg 53%
    04:00 -4°C° 0 mm 2 mps 595 mmHg 52%
    05:00 -4°C° 0 mm 2 mps 595 mmHg 51%
    06:00 -4°C° 0 mm 2 mps 595 mmHg 49%
    07:00 -5°C° 0 mm 2 mps 595 mmHg 48%
    08:00 -5°C° 0 mm 2 mps 595 mmHg 47%
    09:00 -1°C° 0 mm 1 mps 595 mmHg 47%
    10:00 0°C° 0 mm 1 mps 596 mmHg 48%
    11:00 +2°C° 0 mm 1 mps 596 mmHg 48%
    12:00 +3°C° 0 mm 1 mps 596 mmHg 48%
    13:00 +4°C° 0 mm 1 mps 596 mmHg 48%
    14:00 +4°C° 0 mm 1 mps 595 mmHg 48%
    15:00 +4°C° 0 mm 1 mps 595 mmHg 48%
    16:00 +3°C° 0 mm 1 mps 594 mmHg 47%
    17:00 +2°C° 0 mm 1 mps 594 mmHg 47%
    18:00 +2°C° 0 mm 1 mps 594 mmHg 45%
    19:00 +1°C° 0 mm 1 mps 595 mmHg 43%
    20:00 +1°C° 0 mm 1 mps 595 mmHg 41%
    21:00 +1°C° 0 mm 1 mps 595 mmHg 41%
    22:00 +1°C° 0 mm 1 mps 595 mmHg 42%
    23:00 +1°C° 0 mm 1 mps 595 mmHg 42%

    Pasado mañana, 18 Enero, Viernes

    Tiempo Temperatura Precipitaciones Viento Presión Humedad
    00:00 +1°C° 0.1 mm 1 mps 595 mmHg 49%
    01:00 -1°C° 0.1 mm 2 mps 595 mmHg 57%
    02:00 -1°C° 0.1 mm 2 mps 595 mmHg 64%
    03:00 +1°C° 0.3 mm 1 mps 595 mmHg 71%
    04:00 +1°C° 0.3 mm 1 mps 594 mmHg 78%
    05:00 +1°C° 0.3 mm 1 mps 594 mmHg 85%
    06:00 +1°C° 0.4 mm 1 mps 594 mmHg 85%
    07:00 +1°C° 0.4 mm 1 mps 595 mmHg 86%
    08:00 +1°C° 0.4 mm 1 mps 595 mmHg 87%
    09:00 +2°C° 0.4 mm 1 mps 595 mmHg 87%
    10:00 +2°C° 0.4 mm 1 mps 595 mmHg 88%
    11:00 +2°C° 0.4 mm 2 mps 596 mmHg 88%
    12:00 +2°C° 0.6 mm 2 mps 595 mmHg 89%
    13:00 +2°C° 0.6 mm 2 mps 595 mmHg 90%
    14:00 +2°C° 0.6 mm 2 mps 594 mmHg 91%
    15:00 +2°C° 0.2 mm 2 mps 594 mmHg 90%
    16:00 +2°C° 0.2 mm 2 mps 594 mmHg 89%
    17:00 +1°C° 0.2 mm 2 mps 594 mmHg 88%
    18:00 +1°C° 0.2 mm 2 mps 594 mmHg 88%
    19:00 +1°C° 0.2 mm 2 mps 595 mmHg 88%
    20:00 +1°C° 0.2 mm 2 mps 595 mmHg 87%
    21:00 -1°C° 0.1 mm 2 mps 595 mmHg 87%
    22:00 -1°C° 0.1 mm 2 mps 595 mmHg 87%
    23:00 +1°C° 0.1 mm 1 mps 595 mmHg 86%

    19 Enero, Sábado

    Tiempo Temperatura Precipitaciones Viento Presión Humedad
    00:00 -1°C° 0.1 mm 2 mps 595 mmHg 86%
    01:00 -1°C° 0.1 mm 2 mps 595 mmHg 86%
    02:00 -1°C° 0.1 mm 2 mps 595 mmHg 86%
    03:00 -1°C° 0.2 mm 2 mps 595 mmHg 86%
    04:00 -2°C° 0.2 mm 2 mps 595 mmHg 86%
    05:00 -2°C° 0.2 mm 2 mps 595 mmHg 86%
    06:00 -2°C° 0.3 mm 2 mps 595 mmHg 86%
    07:00 -2°C° 0.3 mm 2 mps 596 mmHg 86%
    08:00 -2°C° 0.3 mm 2 mps 596 mmHg 86%
    09:00 -1°C° 0.3 mm 2 mps 596 mmHg 86%
    10:00 +1°C° 0.3 mm 2 mps 596 mmHg 85%
    11:00 +1°C° 0.3 mm 2 mps 596 mmHg 85%
    12:00 +2°C° 0.2 mm 2 mps 595 mmHg 85%
    13:00 +2°C° 0.2 mm 2 mps 595 mmHg 85%
    14:00 +2°C° 0.2 mm 2 mps 594 mmHg 86%
    15:00 +2°C° 0.2 mm 2 mps 594 mmHg 86%
    16:00 +2°C° 0.2 mm 2 mps 594 mmHg 86%
    17:00 +1°C° 0.2 mm 2 mps 593 mmHg 85%
    18:00 +1°C° 0.6 mm 2 mps 594 mmHg 86%
    19:00 -1°C° 0.6 mm 2 mps 594 mmHg 88%
    20:00 +1°C° 0.6 mm 1 mps 594 mmHg 89%
    21:00 -1°C° 0.9 mm 2 mps 594 mmHg 89%
    22:00 -1°C° 0.9 mm 2 mps 594 mmHg 90%
    23:00 -1°C° 0.9 mm 2 mps 594 mmHg 90%

    20 Enero, Domingo

    Tiempo Temperatura Precipitaciones Viento Presión Humedad
    00:00 -2°C° 0.1 mm 2 mps 594 mmHg 89%
    01:00 -2°C° 0.1 mm 2 mps 594 mmHg 88%
    02:00 -2°C° 0.1 mm 2 mps 593 mmHg 87%
    03:00 -2°C° 0.2 mm 2 mps 593 mmHg 87%
    04:00 0°C° 0.2 mm 1 mps 593 mmHg 87%
    05:00 0°C° 0.2 mm 1 mps 593 mmHg 87%
    06:00 0°C° 0.3 mm 1 mps 593 mmHg 88%
    07:00 0°C° 0.3 mm 1 mps 594 mmHg 88%
    08:00 +1°C° 0.3 mm 1 mps 594 mmHg 88%
    09:00 +1°C° 0.2 mm 1 mps 594 mmHg 87%
    10:00 +1°C° 0.2 mm 2 mps 594 mmHg 86%
    11:00 +2°C° 0.2 mm 2 mps 594 mmHg 85%
    12:00 +2°C° 0.3 mm 2 mps 594 mmHg 86%
    13:00 +2°C° 0.3 mm 2 mps 593 mmHg 86%
    14:00 +2°C° 0.3 mm 2 mps 593 mmHg 87%
    15:00 +2°C° 0.4 mm 2 mps 592 mmHg 88%
    16:00 +1°C° 0.4 mm 2 mps 592 mmHg 88%
    17:00 +1°C° 0.4 mm 2 mps 592 mmHg 88%
    18:00 -1°C° 0.1 mm 2 mps 592 mmHg 88%
    19:00 +1°C° 0.1 mm 1 mps 592 mmHg 87%
    20:00 0°C° 0.1 mm 1 mps 593 mmHg 87%
    21:00 0°C° 0 mm 1 mps 593 mmHg 87%
    22:00 -1°C° 0 mm 1 mps 593 mmHg 87%
    23:00 -1°C° 0 mm 1 mps 593 mmHg 87%

    21 Enero, Lunes

    Tiempo Temperatura Precipitaciones Viento Presión Humedad
    00:00 -1°C° 0 mm 1 mps 593 mmHg 86%
    01:00 -2°C° 0 mm 1 mps 592 mmHg 86%
    02:00 -2°C° 0 mm 1 mps 592 mmHg 86%
    03:00 -2°C° 0 mm 1 mps 592 mmHg 86%
    04:00 -3°C° 0 mm 1 mps 592 mmHg 86%
    05:00 -4°C° 0 mm 1 mps 592 mmHg 86%
    06:00 -4°C° 0 mm 1 mps 592 mmHg 85%
    07:00 -4°C° 0 mm 1 mps 592 mmHg 84%
    08:00 -6°C° 0 mm 1 mps 592 mmHg 83%
    09:00 -3°C° 0 mm 1 mps 593 mmHg 79%
    10:00 -2°C° 0 mm 1 mps 593 mmHg 75%
    11:00 -1°C° 0 mm 1 mps 594 mmHg 72%
    12:00 0°C° 0 mm 1 mps 593 mmHg 70%
    13:00 0°C° 0 mm 1 mps 593 mmHg 68%
    14:00 +1°C° 0 mm 1 mps 592 mmHg 67%
    15:00 0°C° 0 mm 1 mps 592 mmHg 69%
    16:00 -1°C° 0 mm 1 mps 591 mmHg 72%
    17:00 -2°C° 0 mm 1 mps 591 mmHg 74%
    18:00 -3°C° 0 mm 1 mps 591 mmHg 75%
    19:00 -4°C° 0 mm 1 mps 591 mmHg 76%
    20:00 -6°C° 0 mm 1 mps 591 mmHg 77%
    21:00 -6°C° 0 mm 1 mps 592 mmHg 77%
    22:00 -7°C° 0 mm 1 mps 592 mmHg 76%
    23:00 -7°C° 0 mm 1 mps 592 mmHg 76%
    Mostrar más